This is the latest recevied weather packets stored in our database for station/object DG7YEO-13. If no packets are shown the sender has not sent any weather packets the latest 10 day(s).
| Time | Temp. | Humidity | Pressure | Rain* | Wind** | Luminosity | Snow |
|---|---|---|---|---|---|---|---|
| 1787886125 | 20° C | 93% | 1006.4 hPa | 0 mm | - | - | - |
| 1787885224 | 20° C | 93% | 1006.8 hPa | 0 mm | - | - | - |
| 1787884325 | 20° C | 93% | 1006.9 hPa | 0 mm | - | - | - |
| 1787883425 | 20.56° C | 92% | 1006.8 hPa | 0 mm | - | - | - |
| 1787882525 | 20.56° C | 92% | 1006.9 hPa | 0 mm | - | - | - |
| 1787881625 | 20.56° C | 91% | 1007.3 hPa | 0 mm | - | - | - |
| 1787880725 | 20.56° C | 91% | 1007.5 hPa | 0 mm | - | - | - |
| 1787879825 | 21.11° C | 90% | 1007.9 hPa | 0 mm | - | - | - |
| 1787878925 | 21.67° C | 89% | 1008.1 hPa | 0 mm | - | - | - |
| 1787878025 | 22.22° C | 88% | 1007.8 hPa | 0.76 mm | - | - | - |
| 1787877125 | 22.22° C | 87% | 1007.5 hPa | 1.52 mm | - | - | - |
| 1787876225 | 22.78° C | 86% | 1007 hPa | 1.52 mm | - | - | - |
| 1787875325 | 23.33° C | 84% | 1007 hPa | 1.52 mm | - | - | - |
| 1787874424 | 23.33° C | 81% | 1007 hPa | 0.51 mm | - | - | - |
| 1787873525 | 22.78° C | 80% | 1006.9 hPa | 0 mm | - | - | - |
| 1787872625 | 23.33° C | 81% | 1006 hPa | 0 mm | - | - | - |
| 1787871725 | 23.33° C | 81% | 1006.2 hPa | 0 mm | - | - | - |
| 1787870825 | 23.89° C | 80% | 1006.6 hPa | 0 mm | - | - | - |
| 1787869925 | 23.89° C | 79% | 1006.6 hPa | 0.25 mm | - | - | - |
| 1787869025 | 24.44° C | 78% | 1006.8 hPa | 0.25 mm | - | - | - |
| 1787868124 | 25° C | 77% | 1007.4 hPa | 0.25 mm | - | - | - |
| 1787867225 | 25° C | 74% | 1007.6 hPa | 0.25 mm | - | - | - |
| 1787866325 | 25.56° C | 72% | 1008 hPa | 0 mm | - | - | - |
| 1787865425 | 25.56° C | 70% | 1007.8 hPa | 0 mm | - | - | - |
| 1787864525 | 25.56° C | 69% | 1007.7 hPa | 0 mm | - | - | - |
* Rain latest hour (hover to see other rain measurements)
** Current wind speed in m/s (hover to see current wind gust speed)